Regional Weather Roundup
Issued by NWS

Home | Current Version | Previous Version | Graphics & Text | Print | Product List | Glossary On
Versions: 1 2 3 4 5 6 7 8 9 10 11 12 13 14 15 16 17 18 19 20 21 22 23 24 25 26 27 28 29 30 31 32 33 34 35 36 37 38 39 40 41 42 43 44 45 46 47 48 49 50
000
ASUS43 KLSX 011307
RWRMO

WEATHER SUMMARY FOR MISSOURI
NATIONAL WEATHER SERVICE SPRINGFIELD MO
800 AM CDT SUN MAY 01 2016

NOTE: "FAIR" INDICATES FEW OR NO CLOUDS BELOW 12,000 FEET WITH NO
       SIGNIFICANT WEATHER AND/OR OBSTRUCTIONS TO VISIBILITY.
       CURRENT SKY AND/OR WEATHER CONDITIONS ARE NOT AVAILABLE FOR
       CHILLICOTHE AND FARMINGTON.

MOZ001>031-035>038-043-044-053-054-011400-
...NORTHERN AND WESTERN MISSOURI...

CITY           SKY/WX    TMP DP  RH WIND       PRES   REMARKS
KANSAS CTY INT MOSUNNY   51  47  86 W8        29.94R
KANSAS C DTWN  MOSUNNY   53  47  79 W5        29.94R
LEE`S SUMMIT   MOSUNNY   51  48  89 W6        29.94R
ST JOSEPH      CLOUDY    53  48  83 W5        29.93R
CHILLICOTHE      N/A     52  50  93 NE6       29.94R
KIRKSVILLE     CLOUDY    48  47  96 E5        29.94R FOG

$$
MOZ066>068-077>081-088>096-101>105-011400-
...SOUTHWEST MISSOURI...

CITY           SKY/WX    TMP DP  RH WIND       PRES   REMARKS
SPRINGFIELD    SUNNY     54  46  74 W6        29.95R
JOPLIN         MOSUNNY   52  47  83 W8        29.99R
BRANSON        SUNNY     54  50  87 CALM      29.97R

$$
MOZ032>034-039>042-045>050-055>058-069>072-011400-
...CENTRAL MISSOURI...

CITY           SKY/WX    TMP DP  RH WIND       PRES   REMARKS
COLUMBIA       FOG       57  57 100 N6        29.91R VSB 3/4
JEFFERSON CITY MOSUNNY   56  52  86 NW5       29.92R
ROLLA          MOSUNNY   57  51  80 W9        29.90R
SEDALIA        SUNNY     55  48  77 W7        29.93R
WHITEMAN AFB   MOSUNNY   53  52  96 W9        29.92R
WARRENSBURG    PTSUNNY   52  46  82 W6        29.94R
OSAGE BEACH    SUNNY     54  43  66 SW5       29.92S

$$
MOZ051-052-059>065-011400-
...EAST CENTRAL MISSOURI...

CITY           SKY/WX    TMP DP  RH WIND       PRES   REMARKS
ST LOUIS INTL  MOSUNNY   63  58  83 W5        29.90R
SPIRIT OF STL  PTSUNNY   59  58  96 W6        29.90R
ST CHARLES     CLOUDY    60  59  96 NW6       29.89R

$$
MOZ072>076-082>087-097>100-106>115-011400-
...SOUTH CENTRAL AND SOUTHEAST MISSOURI...

CITY           SKY/WX    TMP DP  RH WIND       PRES   REMARKS
CAPE GIRARDEAU MOSUNNY   66  63  90 S7        29.89R
FARMINGTON     MOSUNNY   61  59  94 MISG      29.92R
POPLAR BLUFF   CLOUDY    64  61  90 W3        29.90R
WEST PLAINS    SUNNY     57  51  80 NW7       29.94R

$$



USA.gov is the U.S. government's official web portal to all federal, state and local government web resources and services.